Year,Month,Day,Hour,Minute,Value (Times are PST for insolation in W/m^2)
2010,02,28,00,00,0.00
2010,02,28,00,01,0.00
2010,02,28,00,02,0.00
2010,02,28,00,03,0.00
2010,02,28,00,04,0.00
2010,02,28,00,05,0.00
2010,02,28,00,06,0.00
2010,02,28,00,07,0.00
2010,02,28,00,08,0.00
2010,02,28,00,09,0.00
2010,02,28,00,10,0.00
2010,02,28,00,11,0.00
2010,02,28,00,12,0.00
2010,02,28,00,13,0.00
2010,02,28,00,14,0.00
2010,02,28,00,15,0.00
2010,02,28,00,16,0.00
2010,02,28,00,17,0.00
2010,02,28,00,18,0.00
2010,02,28,00,19,0.00
2010,02,28,00,20,0.00
2010,02,28,00,21,0.00
2010,02,28,00,22,0.00
2010,02,28,00,23,0.00
2010,02,28,00,24,0.00
2010,02,28,00,25,0.00
2010,02,28,00,26,0.00
2010,02,28,00,27,0.00
2010,02,28,00,28,0.00
2010,02,28,00,29,0.00
2010,02,28,00,30,0.00
2010,02,28,00,31,0.00
2010,02,28,00,32,0.00
2010,02,28,00,33,0.00
2010,02,28,00,34,0.00
2010,02,28,00,35,0.00
2010,02,28,00,36,0.00
2010,02,28,00,37,0.00
2010,02,28,00,38,0.00
2010,02,28,00,39,0.00
2010,02,28,00,40,0.00
2010,02,28,00,41,0.00
2010,02,28,00,42,0.00
2010,02,28,00,43,0.00
2010,02,28,00,44,0.00
2010,02,28,00,45,0.00
2010,02,28,00,46,0.00
2010,02,28,00,47,0.00
2010,02,28,00,48,0.00
2010,02,28,00,49,0.00
2010,02,28,00,50,0.00
2010,02,28,00,51,0.00
2010,02,28,00,52,0.00
2010,02,28,00,53,0.00
2010,02,28,00,54,0.00
2010,02,28,00,55,0.00
2010,02,28,00,56,0.00
2010,02,28,00,57,0.00
2010,02,28,00,58,0.00
2010,02,28,00,59,0.00
2010,02,28,01,00,0.00
2010,02,28,01,01,0.00
2010,02,28,01,02,0.00
2010,02,28,01,03,0.00
2010,02,28,01,04,0.00
2010,02,28,01,05,0.00
2010,02,28,01,06,0.00
2010,02,28,01,07,0.00
2010,02,28,01,08,0.00
2010,02,28,01,09,0.00
2010,02,28,01,10,0.00
2010,02,28,01,11,0.00
2010,02,28,01,12,0.00
2010,02,28,01,13,0.00
2010,02,28,01,14,0.00
2010,02,28,01,15,0.00
2010,02,28,01,16,0.00
2010,02,28,01,17,0.00
2010,02,28,01,18,0.00
2010,02,28,01,19,0.00
2010,02,28,01,20,0.00
2010,02,28,01,21,0.00
2010,02,28,01,22,0.00
2010,02,28,01,23,0.00
2010,02,28,01,24,0.00
2010,02,28,01,25,0.00
2010,02,28,01,26,0.00
2010,02,28,01,27,0.00
2010,02,28,01,28,0.00
2010,02,28,01,29,0.00
2010,02,28,01,30,0.00
2010,02,28,01,31,0.00
2010,02,28,01,32,0.00
2010,02,28,01,33,0.00
2010,02,28,01,34,0.00
2010,02,28,01,35,0.00
2010,02,28,01,36,0.00
2010,02,28,01,37,0.00
2010,02,28,01,38,0.00
2010,02,28,01,39,0.00
2010,02,28,01,40,0.00
2010,02,28,01,41,0.00
2010,02,28,01,42,0.00
2010,02,28,01,43,0.00
2010,02,28,01,44,0.00
2010,02,28,01,45,0.00
2010,02,28,01,46,0.00
2010,02,28,01,47,0.00
2010,02,28,01,48,0.00
2010,02,28,01,49,0.00
2010,02,28,01,50,0.00
2010,02,28,01,51,0.00
2010,02,28,01,52,0.00
2010,02,28,01,53,0.00
2010,02,28,01,54,0.00
2010,02,28,01,55,0.00
2010,02,28,01,56,0.00
2010,02,28,01,57,0.00
2010,02,28,01,58,0.00
2010,02,28,01,59,0.00
2010,02,28,02,00,0.00
2010,02,28,02,01,0.00
2010,02,28,02,02,0.00
2010,02,28,02,03,0.00
2010,02,28,02,04,0.00
2010,02,28,02,05,0.00
2010,02,28,02,06,0.00
2010,02,28,02,07,0.00
2010,02,28,02,08,0.00
2010,02,28,02,09,0.00
2010,02,28,02,10,0.00
2010,02,28,02,11,0.00
2010,02,28,02,12,0.00
2010,02,28,02,13,0.00
2010,02,28,02,14,0.00
2010,02,28,02,15,0.00
2010,02,28,02,16,0.00
2010,02,28,02,17,0.00
2010,02,28,02,18,0.00
2010,02,28,02,19,0.00
2010,02,28,02,20,0.00
2010,02,28,02,21,0.00
2010,02,28,02,22,0.00
2010,02,28,02,23,0.00
2010,02,28,02,24,0.00
2010,02,28,02,25,0.00
2010,02,28,02,26,0.00
2010,02,28,02,27,0.00
2010,02,28,02,28,0.00
2010,02,28,02,29,0.00
2010,02,28,02,30,0.00
2010,02,28,02,31,0.00
2010,02,28,02,32,0.00
2010,02,28,02,33,0.00
2010,02,28,02,34,0.00
2010,02,28,02,35,0.00
2010,02,28,02,36,0.00
2010,02,28,02,37,0.00
2010,02,28,02,38,0.00
2010,02,28,02,39,0.00
2010,02,28,02,40,0.00
2010,02,28,02,41,0.00
2010,02,28,02,42,0.00
2010,02,28,02,43,0.00
2010,02,28,02,44,0.00
2010,02,28,02,45,0.00
2010,02,28,02,46,0.00
2010,02,28,02,47,0.00
2010,02,28,02,48,0.00
2010,02,28,02,49,0.00
2010,02,28,02,50,0.00
2010,02,28,02,51,0.00
2010,02,28,02,52,0.00
2010,02,28,02,53,0.00
2010,02,28,02,54,0.00
2010,02,28,02,55,0.00
2010,02,28,02,56,0.00
2010,02,28,02,57,0.00
2010,02,28,02,58,0.00
2010,02,28,02,59,0.00
2010,02,28,03,00,0.00
2010,02,28,03,01,0.00
2010,02,28,03,02,0.00
2010,02,28,03,03,0.00
2010,02,28,03,04,0.00
2010,02,28,03,05,0.00
2010,02,28,03,06,0.00
2010,02,28,03,07,0.00
2010,02,28,03,08,0.00
2010,02,28,03,09,0.00
2010,02,28,03,10,0.00
2010,02,28,03,11,0.00
2010,02,28,03,12,0.00
2010,02,28,03,13,0.00
2010,02,28,03,14,0.00
2010,02,28,03,15,0.00
2010,02,28,03,16,0.00
2010,02,28,03,17,0.00
2010,02,28,03,18,0.00
2010,02,28,03,19,0.00
2010,02,28,03,20,0.00
2010,02,28,03,21,0.00
2010,02,28,03,22,0.00
2010,02,28,03,23,0.00
2010,02,28,03,24,0.00
2010,02,28,03,25,0.00
2010,02,28,03,26,0.00
2010,02,28,03,27,0.00
2010,02,28,03,28,0.00
2010,02,28,03,29,0.00
2010,02,28,03,30,0.00
2010,02,28,03,31,0.00
2010,02,28,03,32,0.00
2010,02,28,03,33,0.00
2010,02,28,03,34,0.00
2010,02,28,03,35,0.00
2010,02,28,03,36,0.00
2010,02,28,03,37,0.00
2010,02,28,03,38,0.00
2010,02,28,03,39,0.00
2010,02,28,03,40,0.00
2010,02,28,03,41,0.00
2010,02,28,03,42,0.00
2010,02,28,03,43,0.00
2010,02,28,03,44,0.00
2010,02,28,03,45,0.00
2010,02,28,03,46,0.00
2010,02,28,03,47,0.00
2010,02,28,03,48,0.00
2010,02,28,03,49,0.00
2010,02,28,03,50,0.00
2010,02,28,03,51,0.00
2010,02,28,03,52,0.00
2010,02,28,03,53,0.00
2010,02,28,03,54,0.00
2010,02,28,03,55,0.00
2010,02,28,03,56,0.00
2010,02,28,03,57,0.00
2010,02,28,03,58,0.00
2010,02,28,03,59,0.00
2010,02,28,04,00,0.00
2010,02,28,04,01,0.00
2010,02,28,04,02,0.00
2010,02,28,04,03,0.00
2010,02,28,04,04,0.00
2010,02,28,04,05,0.00
2010,02,28,04,06,0.00
2010,02,28,04,07,0.00
2010,02,28,04,08,0.00
2010,02,28,04,09,0.00
2010,02,28,04,10,0.00
2010,02,28,04,11,0.00
2010,02,28,04,12,0.00
2010,02,28,04,13,0.00
2010,02,28,04,14,0.00
2010,02,28,04,15,0.00
2010,02,28,04,16,0.00
2010,02,28,04,17,0.00
2010,02,28,04,18,0.00
2010,02,28,04,19,0.00
2010,02,28,04,20,0.00
2010,02,28,04,21,0.00
2010,02,28,04,22,0.00
2010,02,28,04,23,0.00
2010,02,28,04,24,0.00
2010,02,28,04,25,0.00
2010,02,28,04,26,0.00
2010,02,28,04,27,0.00
2010,02,28,04,28,0.00
2010,02,28,04,29,0.00
2010,02,28,04,30,0.00
2010,02,28,04,31,0.00
2010,02,28,04,32,0.00
2010,02,28,04,33,0.00
2010,02,28,04,34,0.00
2010,02,28,04,35,0.00
2010,02,28,04,36,0.00
2010,02,28,04,37,0.00
2010,02,28,04,38,0.00
2010,02,28,04,39,0.00
2010,02,28,04,40,0.00
2010,02,28,04,41,0.00
2010,02,28,04,42,0.00
2010,02,28,04,43,0.00
2010,02,28,04,44,0.00
2010,02,28,04,45,0.00
2010,02,28,04,46,0.00
2010,02,28,04,47,0.00
2010,02,28,04,48,0.00
2010,02,28,04,49,0.00
2010,02,28,04,50,0.00
2010,02,28,04,51,0.00
2010,02,28,04,52,0.00
2010,02,28,04,53,0.00
2010,02,28,04,54,0.00
2010,02,28,04,55,0.00
2010,02,28,04,56,0.00
2010,02,28,04,57,0.00
2010,02,28,04,58,0.00
2010,02,28,04,59,0.00
2010,02,28,05,00,0.00
2010,02,28,05,01,0.00
2010,02,28,05,02,0.00
2010,02,28,05,03,0.00
2010,02,28,05,04,0.00
2010,02,28,05,05,0.00
2010,02,28,05,06,0.00
2010,02,28,05,07,0.00
2010,02,28,05,08,0.00
2010,02,28,05,09,0.00
2010,02,28,05,10,0.00
2010,02,28,05,11,0.00
2010,02,28,05,12,0.00
2010,02,28,05,13,0.00
2010,02,28,05,14,0.00
2010,02,28,05,15,0.00
2010,02,28,05,16,0.00
2010,02,28,05,17,0.00
2010,02,28,05,18,0.00
2010,02,28,05,19,0.00
2010,02,28,05,20,0.00
2010,02,28,05,21,0.00
2010,02,28,05,22,0.00
2010,02,28,05,23,0.00
2010,02,28,05,24,0.00
2010,02,28,05,25,0.00
2010,02,28,05,26,0.00
2010,02,28,05,27,0.00
2010,02,28,05,28,0.00
2010,02,28,05,29,0.00
2010,02,28,05,30,0.00
2010,02,28,05,31,0.00
2010,02,28,05,32,0.00
2010,02,28,05,33,0.00
2010,02,28,05,34,0.00
2010,02,28,05,35,0.00
2010,02,28,05,36,0.00
2010,02,28,05,37,0.00
2010,02,28,05,38,0.00
2010,02,28,05,39,0.00
2010,02,28,05,40,0.00
2010,02,28,05,41,0.00
2010,02,28,05,42,0.00
2010,02,28,05,43,0.00
2010,02,28,05,44,0.00
2010,02,28,05,45,0.00
2010,02,28,05,46,0.00
2010,02,28,05,47,0.00
2010,02,28,05,48,0.00
2010,02,28,05,49,0.00
2010,02,28,05,50,0.00
2010,02,28,05,51,0.00
2010,02,28,05,52,0.00
2010,02,28,05,53,0.00
2010,02,28,05,54,0.00
2010,02,28,05,55,0.00
2010,02,28,05,56,0.00
2010,02,28,05,57,0.00
2010,02,28,05,58,0.00
2010,02,28,05,59,0.00
2010,02,28,06,00,0.00
2010,02,28,06,01,0.00
2010,02,28,06,02,0.00
2010,02,28,06,03,0.00
2010,02,28,06,04,0.00
2010,02,28,06,05,0.00
2010,02,28,06,06,0.00
2010,02,28,06,07,0.00
2010,02,28,06,08,0.00
2010,02,28,06,09,0.00
2010,02,28,06,10,0.00
2010,02,28,06,11,0.00
2010,02,28,06,12,0.00
2010,02,28,06,13,0.00
2010,02,28,06,14,0.00
2010,02,28,06,15,0.00
2010,02,28,06,16,0.00
2010,02,28,06,17,0.00
2010,02,28,06,18,0.00
2010,02,28,06,19,0.00
2010,02,28,06,20,0.00
2010,02,28,06,21,0.00
2010,02,28,06,22,0.00
2010,02,28,06,23,0.00
2010,02,28,06,24,0.00
2010,02,28,06,25,0.00
2010,02,28,06,26,0.00
2010,02,28,06,27,0.00
2010,02,28,06,28,0.00
2010,02,28,06,29,0.00
2010,02,28,06,30,0.00
2010,02,28,06,31,0.00
2010,02,28,06,32,0.00
2010,02,28,06,33,0.00
2010,02,28,06,34,0.00
2010,02,28,06,35,0.00
2010,02,28,06,36,0.00
2010,02,28,06,37,0.00
2010,02,28,06,38,0.00
2010,02,28,06,39,0.00
2010,02,28,06,40,0.00
2010,02,28,06,41,0.00
2010,02,28,06,42,0.00
2010,02,28,06,43,0.00
2010,02,28,06,44,0.00
2010,02,28,06,45,0.00
2010,02,28,06,46,0.00
2010,02,28,06,47,0.00
2010,02,28,06,48,0.00
2010,02,28,06,49,0.00
2010,02,28,06,50,0.00
2010,02,28,06,51,0.00
2010,02,28,06,52,0.00
2010,02,28,06,53,0.00
2010,02,28,06,54,0.00
2010,02,28,06,55,0.00
2010,02,28,06,56,0.00
2010,02,28,06,57,0.00
2010,02,28,06,58,0.00
2010,02,28,06,59,0.00
2010,02,28,07,00,0.00
2010,02,28,07,01,0.00
2010,02,28,07,02,0.00
2010,02,28,07,03,0.00
2010,02,28,07,04,0.00
2010,02,28,07,05,0.00
2010,02,28,07,06,0.00
2010,02,28,07,07,0.00
2010,02,28,07,08,0.00
2010,02,28,07,09,0.00
2010,02,28,07,10,0.00
2010,02,28,07,11,0.00
2010,02,28,07,12,0.00
2010,02,28,07,13,0.00
2010,02,28,07,14,0.00
2010,02,28,07,15,4.10
2010,02,28,07,16,5.00
2010,02,28,07,17,5.00
2010,02,28,07,18,5.80
2010,02,28,07,19,7.00
2010,02,28,07,20,7.00
2010,02,28,07,21,7.00
2010,02,28,07,22,9.00
2010,02,28,07,23,9.00
2010,02,28,07,24,9.80
2010,02,28,07,25,11.00
2010,02,28,07,26,11.00
2010,02,28,07,27,11.80
2010,02,28,07,28,12.20
2010,02,28,07,29,14.00
2010,02,28,07,30,14.80
2010,02,28,07,31,16.00
2010,02,28,07,32,17.40
2010,02,28,07,33,18.90
2010,02,28,07,34,19.30
2010,02,28,07,35,21.00
2010,02,28,07,36,21.00
2010,02,28,07,37,21.00
2010,02,28,07,38,22.50
2010,02,28,07,39,23.00
2010,02,28,07,40,25.20
2010,02,28,07,41,26.00
2010,02,28,07,42,26.80
2010,02,28,07,43,28.00
2010,02,28,07,44,29.50
2010,02,28,07,45,30.10
2010,02,28,07,46,32.20
2010,02,28,07,47,33.00
2010,02,28,07,48,34.00
2010,02,28,07,49,35.00
2010,02,28,07,50,36.60
2010,02,28,07,51,38.80
2010,02,28,07,52,39.20
2010,02,28,07,53,40.70
2010,02,28,07,54,43.00
2010,02,28,07,55,44.00
2010,02,28,07,56,45.60
2010,02,28,07,57,47.00
2010,02,28,07,58,47.50
2010,02,28,07,59,49.00
2010,02,28,08,00,50.10
2010,02,28,08,01,51.00
2010,02,28,08,02,52.70
2010,02,28,08,03,53.10
2010,02,28,08,04,54.00
2010,02,28,08,05,54.80
2010,02,28,08,06,56.00
2010,02,28,08,07,57.50
2010,02,28,08,08,58.00
2010,02,28,08,09,60.20
2010,02,28,08,10,62.30
2010,02,28,08,11,63.00
2010,02,28,08,12,64.20
2010,02,28,08,13,66.50
2010,02,28,08,14,68.80
2010,02,28,08,15,69.20
2010,02,28,08,16,70.00
2010,02,28,08,17,70.00
2010,02,28,08,18,70.00
2010,02,28,08,19,71.50
2010,02,28,08,20,72.10
2010,02,28,08,21,74.30
2010,02,28,08,22,76.30
2010,02,28,08,23,77.90
2010,02,28,08,24,79.00
2010,02,28,08,25,80.50
2010,02,28,08,26,82.90
2010,02,28,08,27,84.40
2010,02,28,08,28,86.00
2010,02,28,08,29,87.00
2010,02,28,08,30,89.30
2010,02,28,08,31,90.00
2010,02,28,08,32,91.10
2010,02,28,08,33,93.40
2010,02,28,08,34,95.00
2010,02,28,08,35,95.00
2010,02,28,08,36,96.30
2010,02,28,08,37,97.00
2010,02,28,08,38,97.10
2010,02,28,08,39,97.80
2010,02,28,08,40,97.40
2010,02,28,08,41,98.00
2010,02,28,08,42,98.00
2010,02,28,08,43,98.00
2010,02,28,08,44,98.20
2010,02,28,08,45,100.00
2010,02,28,08,46,100.00
2010,02,28,08,47,101.10
2010,02,28,08,48,103.40
2010,02,28,08,49,104.80
2010,02,28,08,50,107.30
2010,02,28,08,51,111.50
2010,02,28,08,52,114.20
2010,02,28,08,53,117.20
2010,02,28,08,54,119.50
2010,02,28,08,55,120.00
2010,02,28,08,56,119.70
2010,02,28,08,57,117.40
2010,02,28,08,58,116.00
2010,02,28,08,59,114.80
2010,02,28,09,00,114.00
2010,02,28,09,01,113.10
2010,02,28,09,02,113.20
2010,02,28,09,03,114.00
2010,02,28,09,04,114.00
2010,02,28,09,05,114.00
2010,02,28,09,06,113.20
2010,02,28,09,07,113.00
2010,02,28,09,08,113.00
2010,02,28,09,09,113.00
2010,02,28,09,10,112.00
2010,02,28,09,11,111.00
2010,02,28,09,12,111.00
2010,02,28,09,13,109.10
2010,02,28,09,14,108.50
2010,02,28,09,15,107.00
2010,02,28,09,16,107.00
2010,02,28,09,17,107.00
2010,02,28,09,18,107.00
2010,02,28,09,19,109.00
2010,02,28,09,20,109.00
2010,02,28,09,21,109.80
2010,02,28,09,22,111.00
2010,02,28,09,23,112.40
2010,02,28,09,24,113.80
2010,02,28,09,25,116.20
2010,02,28,09,26,118.50
2010,02,28,09,27,120.00
2010,02,28,09,28,120.60
2010,02,28,09,29,122.40
2010,02,28,09,30,124.70
2010,02,28,09,31,127.30
2010,02,28,09,32,131.10
2010,02,28,09,33,134.40
2010,02,28,09,34,137.50
2010,02,28,09,35,140.50
2010,02,28,09,36,143.70
2010,02,28,09,37,148.10
2010,02,28,09,38,150.10
2010,02,28,09,39,154.40
2010,02,28,09,40,157.20
2010,02,28,09,41,159.50
2010,02,28,09,42,162.00
2010,02,28,09,43,165.40
2010,02,28,09,44,167.00
2010,02,28,09,45,168.00
2010,02,28,09,46,170.90
2010,02,28,09,47,173.50
2010,02,28,09,48,176.00
2010,02,28,09,49,178.20
2010,02,28,09,50,179.00
2010,02,28,09,51,178.50
2010,02,28,09,52,176.70
2010,02,28,09,53,176.00
2010,02,28,09,54,174.10
2010,02,28,09,55,174.00
2010,02,28,09,56,174.00
2010,02,28,09,57,173.00
2010,02,28,09,58,170.10
2010,02,28,09,59,167.50
2010,02,28,10,00,165.00
2010,02,28,10,01,162.80
2010,02,28,10,02,161.20
2010,02,28,10,03,161.10
2010,02,28,10,04,162.00
2010,02,28,10,05,162.80
2010,02,28,10,06,166.80
2010,02,28,10,07,163.40
2010,02,28,10,08,156.10
2010,02,28,10,09,154.10
2010,02,28,10,10,155.70
2010,02,28,10,11,159.50
2010,02,28,10,12,165.00
2010,02,28,10,13,165.80
2010,02,28,10,14,165.60
2010,02,28,10,15,170.80
2010,02,28,10,16,165.50
2010,02,28,10,17,166.30
2010,02,28,10,18,190.60
2010,02,28,10,19,183.00
2010,02,28,10,20,188.00
2010,02,28,10,21,188.00
2010,02,28,10,22,224.80
2010,02,28,10,23,250.00
2010,02,28,10,24,303.10
2010,02,28,10,25,231.30
2010,02,28,10,26,230.00
2010,02,28,10,27,303.80
2010,02,28,10,28,374.80
2010,02,28,10,29,387.90
2010,02,28,10,30,489.50
2010,02,28,10,31,487.00
2010,02,28,10,32,488.00
2010,02,28,10,33,489.60
2010,02,28,10,34,474.80
2010,02,28,10,35,419.70
2010,02,28,10,36,456.50
2010,02,28,10,37,456.50
2010,02,28,10,38,460.00
2010,02,28,10,39,466.20
2010,02,28,10,40,476.40
2010,02,28,10,41,483.30
2010,02,28,10,42,492.00
2010,02,28,10,43,441.40
2010,02,28,10,44,362.50
2010,02,28,10,45,341.80
2010,02,28,10,46,330.00
2010,02,28,10,47,330.00
2010,02,28,10,48,371.60
2010,02,28,10,49,498.20
2010,02,28,10,50,503.10
2010,02,28,10,51,524.00
2010,02,28,10,52,454.00
2010,02,28,10,53,500.60
2010,02,28,10,54,578.40
2010,02,28,10,55,631.90
2010,02,28,10,56,687.00
2010,02,28,10,57,687.00
2010,02,28,10,58,501.20
2010,02,28,10,59,369.40
2010,02,28,11,00,361.80
2010,02,28,11,01,366.00
2010,02,28,11,02,433.30
2010,02,28,11,03,485.00
2010,02,28,11,04,378.00
2010,02,28,11,05,344.80
2010,02,28,11,06,330.70
2010,02,28,11,07,378.70
2010,02,28,11,08,387.60
2010,02,28,11,09,379.00
2010,02,28,11,10,360.30
2010,02,28,11,11,369.00
2010,02,28,11,12,372.00
2010,02,28,11,13,388.50
2010,02,28,11,14,376.20
2010,02,28,11,15,360.80
2010,02,28,11,16,293.60
2010,02,28,11,17,255.00
2010,02,28,11,18,248.70
2010,02,28,11,19,250.50
2010,02,28,11,20,250.30
2010,02,28,11,21,258.30
2010,02,28,11,22,283.40
2010,02,28,11,23,295.00
2010,02,28,11,24,281.00
2010,02,28,11,25,270.90
2010,02,28,11,26,251.00
2010,02,28,11,27,238.00
2010,02,28,11,28,239.40
2010,02,28,11,29,243.00
2010,02,28,11,30,246.00
2010,02,28,11,31,253.20
2010,02,28,11,32,249.90
2010,02,28,11,33,243.70
2010,02,28,11,34,230.60
2010,02,28,11,35,220.20
2010,02,28,11,36,218.00
2010,02,28,11,37,220.80
2010,02,28,11,38,225.80
2010,02,28,11,39,235.70
2010,02,28,11,40,261.60
2010,02,28,11,41,286.60
2010,02,28,11,42,316.00
2010,02,28,11,43,334.00
2010,02,28,11,44,325.90
2010,02,28,11,45,327.20
2010,02,28,11,46,318.70
2010,02,28,11,47,312.50
2010,02,28,11,48,283.30
2010,02,28,11,49,261.50
2010,02,28,11,50,241.30
2010,02,28,11,51,236.20
2010,02,28,11,52,239.40
2010,02,28,11,53,240.40
2010,02,28,11,54,242.50
2010,02,28,11,55,267.50
2010,02,28,11,56,289.60
2010,02,28,11,57,299.70
2010,02,28,11,58,281.90
2010,02,28,11,59,288.10
2010,02,28,12,00,289.30
2010,02,28,12,01,285.00
2010,02,28,12,02,285.00
2010,02,28,12,03,282.20
2010,02,28,12,04,293.10
2010,02,28,12,05,298.50
2010,02,28,12,06,300.00
2010,02,28,12,07,297.60
2010,02,28,12,08,298.60
2010,02,28,12,09,301.60
2010,02,28,12,10,300.80
2010,02,28,12,11,316.30
2010,02,28,12,12,356.70
2010,02,28,12,13,381.00
2010,02,28,12,14,678.50
2010,02,28,12,15,719.00
2010,02,28,12,16,699.40
2010,02,28,12,17,647.00
2010,02,28,12,18,647.00
2010,02,28,12,19,519.10
2010,02,28,12,20,507.10
2010,02,28,12,21,409.90
2010,02,28,12,22,380.70
2010,02,28,12,23,381.40
2010,02,28,12,24,399.40
2010,02,28,12,25,446.30
2010,02,28,12,26,463.30
2010,02,28,12,27,417.10
2010,02,28,12,28,425.60
2010,02,28,12,29,416.50
2010,02,28,12,30,420.80
2010,02,28,12,31,477.40
2010,02,28,12,32,470.80
2010,02,28,12,33,491.50
2010,02,28,12,34,587.00
2010,02,28,12,35,549.50
2010,02,28,12,36,512.00
2010,02,28,12,37,628.60
2010,02,28,12,38,695.50
2010,02,28,12,39,662.50
2010,02,28,12,40,668.00
2010,02,28,12,41,686.50
2010,02,28,12,42,718.30
2010,02,28,12,43,724.00
2010,02,28,12,44,660.50
2010,02,28,12,45,671.00
2010,02,28,12,46,619.20
2010,02,28,12,47,554.70
2010,02,28,12,48,605.80
2010,02,28,12,49,585.60
2010,02,28,12,50,642.30
2010,02,28,12,51,667.80
2010,02,28,12,52,696.80
2010,02,28,12,53,715.00
2010,02,28,12,54,746.30
2010,02,28,12,55,756.30
2010,02,28,12,56,658.80
2010,02,28,12,57,666.30
2010,02,28,12,58,657.00
2010,02,28,12,59,657.00
2010,02,28,13,00,657.00
2010,02,28,13,01,657.00
2010,02,28,13,02,726.60
2010,02,28,13,03,708.70
2010,02,28,13,04,701.00
2010,02,28,13,05,607.90
2010,02,28,13,06,582.00
2010,02,28,13,07,656.50
2010,02,28,13,08,663.00
2010,02,28,13,09,662.40
2010,02,28,13,10,661.00
2010,02,28,13,11,590.40
2010,02,28,13,12,550.00
2010,02,28,13,13,456.90
2010,02,28,13,14,479.60
2010,02,28,13,15,629.70
2010,02,28,13,16,640.00
2010,02,28,13,17,636.90
2010,02,28,13,18,638.00
2010,02,28,13,19,627.60
2010,02,28,13,20,399.40
2010,02,28,13,21,359.00
2010,02,28,13,22,359.00
2010,02,28,13,23,359.00
2010,02,28,13,24,359.00
2010,02,28,13,25,346.20
2010,02,28,13,26,214.20
2010,02,28,13,27,196.80
2010,02,28,13,28,182.80
2010,02,28,13,29,170.10
2010,02,28,13,30,157.60
2010,02,28,13,31,148.00
2010,02,28,13,32,144.00
2010,02,28,13,33,144.80
2010,02,28,13,34,147.00
2010,02,28,13,35,148.00
2010,02,28,13,36,144.50
2010,02,28,13,37,138.30
2010,02,28,13,38,129.50
2010,02,28,13,39,119.20
2010,02,28,13,40,109.80
2010,02,28,13,41,101.90
2010,02,28,13,42,93.60
2010,02,28,13,43,85.30
2010,02,28,13,44,79.80
2010,02,28,13,45,75.60
2010,02,28,13,46,71.60
2010,02,28,13,47,63.80
2010,02,28,13,48,58.40
2010,02,28,13,49,57.70
2010,02,28,13,50,55.10
2010,02,28,13,51,51.20
2010,02,28,13,52,50.20
2010,02,28,13,53,55.00
2010,02,28,13,54,64.50
2010,02,28,13,55,73.60
2010,02,28,13,56,82.70
2010,02,28,13,57,88.50
2010,02,28,13,58,95.00
2010,02,28,13,59,99.20
2010,02,28,14,00,104.10
2010,02,28,14,01,107.70
2010,02,28,14,02,112.90
2010,02,28,14,03,118.50
2010,02,28,14,04,125.90
2010,02,28,14,05,132.90
2010,02,28,14,06,141.80
2010,02,28,14,07,148.20
2010,02,28,14,08,149.80
2010,02,28,14,09,151.00
2010,02,28,14,10,152.40
2010,02,28,14,11,153.00
2010,02,28,14,12,150.80
2010,02,28,14,13,148.20
2010,02,28,14,14,142.40
2010,02,28,14,15,133.00
2010,02,28,14,16,126.50
2010,02,28,14,17,115.70
2010,02,28,14,18,97.10
2010,02,28,14,19,73.80
2010,02,28,14,20,56.60
2010,02,28,14,21,48.70
2010,02,28,14,22,46.30
2010,02,28,14,23,46.90
2010,02,28,14,24,47.30
2010,02,28,14,25,49.60
2010,02,28,14,26,51.00
2010,02,28,14,27,52.20
2010,02,28,14,28,53.70
2010,02,28,14,29,55.90
2010,02,28,14,30,60.40
2010,02,28,14,31,62.30
2010,02,28,14,32,63.90
2010,02,28,14,33,67.40
2010,02,28,14,34,69.80
2010,02,28,14,35,71.90
2010,02,28,14,36,76.20
2010,02,28,14,37,78.30
2010,02,28,14,38,82.50
2010,02,28,14,39,87.80
2010,02,28,14,40,93.80
2010,02,28,14,41,98.60
2010,02,28,14,42,106.70
2010,02,28,14,43,116.20
2010,02,28,14,44,127.80
2010,02,28,14,45,146.40
2010,02,28,14,46,172.80
2010,02,28,14,47,202.60
2010,02,28,14,48,225.50
2010,02,28,14,49,243.90
2010,02,28,14,50,259.00
2010,02,28,14,51,267.40
2010,02,28,14,52,270.60
2010,02,28,14,53,268.80
2010,02,28,14,54,267.00
2010,02,28,14,55,268.60
2010,02,28,14,56,274.80
2010,02,28,14,57,282.70
2010,02,28,14,58,291.00
2010,02,28,14,59,303.50
2010,02,28,15,00,309.70
2010,02,28,15,01,320.80
2010,02,28,15,02,328.60
2010,02,28,15,03,336.00
2010,02,28,15,04,402.00
2010,02,28,15,05,345.00
2010,02,28,15,06,379.10
2010,02,28,15,07,454.80
2010,02,28,15,08,446.00
2010,02,28,15,09,480.50
2010,02,28,15,10,443.60
2010,02,28,15,11,349.90
2010,02,28,15,12,289.90
2010,02,28,15,13,243.10
2010,02,28,15,14,290.10
2010,02,28,15,15,309.00
2010,02,28,15,16,177.20
2010,02,28,15,17,159.90
2010,02,28,15,18,137.30
2010,02,28,15,19,203.00
2010,02,28,15,20,217.40
2010,02,28,15,21,201.60
2010,02,28,15,22,164.70
2010,02,28,15,23,160.80
2010,02,28,15,24,153.20
2010,02,28,15,25,145.00
2010,02,28,15,26,136.20
2010,02,28,15,27,130.70
2010,02,28,15,28,132.70
2010,02,28,15,29,144.00
2010,02,28,15,30,151.00
2010,02,28,15,31,151.00
2010,02,28,15,32,151.00
2010,02,28,15,33,149.30
2010,02,28,15,34,149.00
2010,02,28,15,35,148.30
2010,02,28,15,36,146.00
2010,02,28,15,37,143.80
2010,02,28,15,38,142.00
2010,02,28,15,39,142.00
2010,02,28,15,40,144.20
2010,02,28,15,41,146.00
2010,02,28,15,42,145.10
2010,02,28,15,43,142.90
2010,02,28,15,44,141.30
2010,02,28,15,45,139.30
2010,02,28,15,46,136.70
2010,02,28,15,47,134.70
2010,02,28,15,48,133.10
2010,02,28,15,49,130.80
2010,02,28,15,50,128.50
2010,02,28,15,51,127.10
2010,02,28,15,52,125.00
2010,02,28,15,53,125.00
2010,02,28,15,54,125.00
2010,02,28,15,55,126.30
2010,02,28,15,56,129.40
2010,02,28,15,57,133.90
2010,02,28,15,58,140.40
2010,02,28,15,59,148.20
2010,02,28,16,00,155.40
2010,02,28,16,01,161.20
2010,02,28,16,02,166.00
2010,02,28,16,03,170.80
2010,02,28,16,04,171.00
2010,02,28,16,05,170.30
2010,02,28,16,06,168.00
2010,02,28,16,07,164.40
2010,02,28,16,08,158.90
2010,02,28,16,09,151.20
2010,02,28,16,10,144.90
2010,02,28,16,11,138.80
2010,02,28,16,12,134.50
2010,02,28,16,13,131.30
2010,02,28,16,14,126.10
2010,02,28,16,15,119.70
2010,02,28,16,16,112.70
2010,02,28,16,17,107.40
2010,02,28,16,18,102.10
2010,02,28,16,19,96.70
2010,02,28,16,20,91.70
2010,02,28,16,21,87.50
2010,02,28,16,22,83.20
2010,02,28,16,23,81.00
2010,02,28,16,24,79.80
2010,02,28,16,25,79.00
2010,02,28,16,26,80.80
2010,02,28,16,27,83.40
2010,02,28,16,28,87.20
2010,02,28,16,29,92.30
2010,02,28,16,30,98.00
2010,02,28,16,31,103.90
2010,02,28,16,32,110.80
2010,02,28,16,33,118.90
2010,02,28,16,34,126.50
2010,02,28,16,35,137.30
2010,02,28,16,36,141.60
2010,02,28,16,37,141.20
2010,02,28,16,38,141.00
2010,02,28,16,39,141.20
2010,02,28,16,40,141.70
2010,02,28,16,41,142.40
2010,02,28,16,42,142.70
2010,02,28,16,43,136.30
2010,02,28,16,44,131.90
2010,02,28,16,45,124.70
2010,02,28,16,46,111.60
2010,02,28,16,47,100.00
2010,02,28,16,48,87.50
2010,02,28,16,49,75.80
2010,02,28,16,50,67.20
2010,02,28,16,51,60.60
2010,02,28,16,52,53.90
2010,02,28,16,53,48.80
2010,02,28,16,54,46.30
2010,02,28,16,55,42.70
2010,02,28,16,56,41.80
2010,02,28,16,57,39.80
2010,02,28,16,58,38.20
2010,02,28,16,59,37.00
2010,02,28,17,00,35.70
2010,02,28,17,01,35.00
2010,02,28,17,02,33.10
2010,02,28,17,03,33.00
2010,02,28,17,04,32.60
2010,02,28,17,05,32.00
2010,02,28,17,06,32.00
2010,02,28,17,07,32.90
2010,02,28,17,08,33.00
2010,02,28,17,09,33.60
2010,02,28,17,10,35.00
2010,02,28,17,11,36.20
2010,02,28,17,12,37.00
2010,02,28,17,13,37.00
2010,02,28,17,14,37.00
2010,02,28,17,15,37.00
2010,02,28,17,16,37.00
2010,02,28,17,17,35.80
2010,02,28,17,18,33.50
2010,02,28,17,19,32.00
2010,02,28,17,20,30.00